Location: Paris
(48.6709°N, 2.3750°E)
Time: 03:23:09
(UTC+02:00)

KKS-1 - Visible Passes

Search period start: 30 June 2022 00:00
Search period end: 10 July 2022 00:00
Orbit: 636 x 647 km, 98.2° (Epoch: 29 June)

Date Brightness Start Highest point End Pass type
(mag) Time Alt. Az. Time Alt. Az. Time Alt. Az.
30 Jun ? 00:34:26 10° N 00:38:44 47° WNW 00:42:40 12° SW visible
30 Jun ? 23:22:01 10° NNE 23:26:09 35° E 23:29:18 15° SSE visible
01 Jul ? 00:58:42 10° N 01:02:34 29° WNW 01:06:25 10° SW visible
01 Jul ? 23:45:48 10° NNE 23:50:15 60° ESE 23:53:32 17° S visible
02 Jul ? 01:23:12 10° NNW 01:26:20 19° WNW 01:29:28 10° WSW visible
02 Jul ? 22:35:12 10° ENE 22:37:08 13° E 22:39:05 10° ESE visible
03 Jul ? 00:09:45 10° NNE 00:14:15 81° WNW 00:17:47 16° SSW visible
03 Jul ? 01:48:15 10° NNW 01:50:02 12° NW 01:51:49 10° W visible
03 Jul ? 22:58:00 10° NE 23:01:25 21° E 23:04:24 12° SE visible
04 Jul ? 00:33:51 10° N 00:38:11 48° WNW 00:42:00 13° SW visible
04 Jul ? 23:21:29 10° NNE 23:25:35 34° E 23:28:38 16° SSE visible
05 Jul ? 00:58:07 10° N 01:02:02 30° WNW 01:05:53 10° SW visible
05 Jul ? 23:45:15 10° NNE 23:49:41 58° E 23:52:52 18° S visible
06 Jul ? 01:22:37 10° NNW 01:25:48 19° WNW 01:28:57 10° WSW visible
06 Jul ? 22:34:44 10° ENE 22:36:34 12° E 22:38:23 10° ESE visible
07 Jul ? 00:09:11 10° NNE 00:13:41 83° WNW 00:17:05 17° SSW visible
07 Jul ? 01:47:36 10° NNW 01:49:29 12° NW 01:51:21 10° W visible
07 Jul ? 22:57:29 10° NE 23:00:50 20° E 23:03:42 12° SE visible
08 Jul ? 00:33:17 10° N 00:37:37 49° WNW 00:41:18 14° SW visible
08 Jul ? 23:20:56 10° NNE 23:25:01 33° E 23:27:54 17° SSE visible
09 Jul ? 00:57:33 10° N 01:01:28 30° WNW 01:05:21 10° SW visible
09 Jul ? 23:44:40 10° NNE 23:49:06 57° E 23:52:08 19° S visible
